sat.trackr.live / text

‹ back to catalog

STARLINK-35726

NORAD 66280 · 2025-247R

PAYLOAD ACTIVE UNKNOWN

§ Identity

Operator
Country
US
Launch date
2025-10-31
Launch site
AFWTR
Launch vehicle
Mass (kg)
RCS (m²)

Purposes: comms

External: N2YO · Heavens-Above · Gunter

§ Orbital elements

Epoch: 2026-05-25T03:02:25.954656Z

Period
93.85 min
Inclination
53.1596°
Eccentricity
0.0001594
Mean motion
15.34406119 rev/d
Perigee alt
461.6 km
Apogee alt
463.8 km
Semi-major
6,840.8 km
B*
4.4948e-4
RAAN
195.1883°
Arg perigee
82.6489°
Mean anomaly
277.4694°
Rev number
3,275

§ Raw data

STARLINK-357261 66280U 25247R   26145.12668929  .00014843  00000+0  44948-3 0  99942 66280  53.1596 195.1883 0001594  82.6489 277.4694 15.34406119 32754

JSON: /api/v1/satellites/66280 · /tle

For live sub-satellite position, see the globe view (requires WebGL).

§ Visibility from observer

Set your observer location to see the next 7 days of passes ≥ 10°. The values pass through the URL so the page stays shareable.

No JS? Fill the form by hand. The geolocation button needs JavaScript.